Year,Month,Day,Hour,Minute,Value (Times are PST for temperature in C)
2008,10,26,00,00,2.70
2008,10,26,00,01,2.70
2008,10,26,00,02,2.70
2008,10,26,00,03,2.70
2008,10,26,00,04,2.70
2008,10,26,00,05,2.70
2008,10,26,00,06,2.70
2008,10,26,00,07,2.70
2008,10,26,00,08,2.70
2008,10,26,00,09,2.70
2008,10,26,00,10,2.60
2008,10,26,00,11,2.60
2008,10,26,00,12,2.60
2008,10,26,00,13,2.60
2008,10,26,00,14,2.60
2008,10,26,00,15,2.60
2008,10,26,00,16,2.60
2008,10,26,00,17,2.70
2008,10,26,00,18,2.70
2008,10,26,00,19,2.70
2008,10,26,00,20,2.70
2008,10,26,00,21,2.70
2008,10,26,00,22,2.70
2008,10,26,00,23,2.70
2008,10,26,00,24,2.70
2008,10,26,00,25,2.70
2008,10,26,00,26,2.70
2008,10,26,00,27,2.70
2008,10,26,00,28,2.70
2008,10,26,00,29,2.70
2008,10,26,00,30,2.70
2008,10,26,00,31,2.70
2008,10,26,00,32,2.70
2008,10,26,00,33,2.70
2008,10,26,00,34,2.70
2008,10,26,00,35,2.70
2008,10,26,00,36,2.70
2008,10,26,00,37,2.70
2008,10,26,00,38,2.70
2008,10,26,00,39,2.70
2008,10,26,00,40,2.70
2008,10,26,00,41,2.70
2008,10,26,00,42,2.70
2008,10,26,00,43,2.70
2008,10,26,00,44,2.70
2008,10,26,00,45,2.70
2008,10,26,00,46,2.70
2008,10,26,00,47,2.70
2008,10,26,00,48,2.70
2008,10,26,00,49,2.70
2008,10,26,00,50,2.70
2008,10,26,00,51,2.70
2008,10,26,00,52,2.70
2008,10,26,00,53,2.70
2008,10,26,00,54,2.70
2008,10,26,00,55,2.70
2008,10,26,00,56,2.70
2008,10,26,00,57,2.70
2008,10,26,00,58,2.70
2008,10,26,00,59,2.70
2008,10,26,02,00,2.70
2008,10,26,02,01,2.70
2008,10,26,02,02,2.70
2008,10,26,02,03,2.70
2008,10,26,02,04,2.70
2008,10,26,02,05,2.70
2008,10,26,02,06,2.70
2008,10,26,02,07,2.70
2008,10,26,02,08,2.70
2008,10,26,02,09,2.70
2008,10,26,02,10,2.60
2008,10,26,02,11,2.70
2008,10,26,02,12,2.70
2008,10,26,02,13,2.70
2008,10,26,02,14,2.70
2008,10,26,02,15,2.70
2008,10,26,02,16,2.70
2008,10,26,02,17,2.70
2008,10,26,02,18,2.60
2008,10,26,02,19,2.60
2008,10,26,02,20,2.60
2008,10,26,02,21,2.70
2008,10,26,02,22,2.70
2008,10,26,02,23,2.70
2008,10,26,02,24,2.70
2008,10,26,02,25,2.70
2008,10,26,02,26,2.70
2008,10,26,02,27,2.70
2008,10,26,02,28,2.70
2008,10,26,02,29,2.70
2008,10,26,02,30,2.70
2008,10,26,02,31,2.70
2008,10,26,02,32,2.70
2008,10,26,02,33,2.60
2008,10,26,02,34,2.60
2008,10,26,02,35,2.60
2008,10,26,02,36,2.60
2008,10,26,02,37,2.60
2008,10,26,02,38,2.60
2008,10,26,02,39,2.60
2008,10,26,02,40,2.60
2008,10,26,02,41,2.60
2008,10,26,02,42,2.60
2008,10,26,02,43,2.60
2008,10,26,02,44,2.60
2008,10,26,02,45,2.60
2008,10,26,02,46,2.60
2008,10,26,02,47,2.60
2008,10,26,02,48,2.60
2008,10,26,02,49,2.60
2008,10,26,02,50,2.60
2008,10,26,02,51,2.60
2008,10,26,02,52,2.60
2008,10,26,02,53,2.60
2008,10,26,02,54,2.60
2008,10,26,02,55,2.60
2008,10,26,02,56,2.60
2008,10,26,02,57,2.60
2008,10,26,02,58,2.60
2008,10,26,02,59,2.60
2008,10,26,03,02,3.70
2008,10,26,03,03,3.80
2008,10,26,03,04,3.80
2008,10,26,03,05,3.80
2008,10,26,03,06,3.90
2008,10,26,03,07,3.90
2008,10,26,03,08,3.90
2008,10,26,03,09,4.00
2008,10,26,03,10,4.00
2008,10,26,03,11,4.10
2008,10,26,03,12,4.10
2008,10,26,03,13,4.20
2008,10,26,03,14,4.40
2008,10,26,03,15,4.50
2008,10,26,03,16,4.60
2008,10,26,03,17,4.60
2008,10,26,03,18,4.60
2008,10,26,03,19,4.60
2008,10,26,03,20,4.60
2008,10,26,03,21,4.60
2008,10,26,03,22,4.70
2008,10,26,03,23,4.70
2008,10,26,03,24,4.60
2008,10,26,03,25,4.60
2008,10,26,03,26,4.60
2008,10,26,03,27,4.60
2008,10,26,03,28,4.50
2008,10,26,03,29,4.50
2008,10,26,03,30,4.40
2008,10,26,03,31,4.40
2008,10,26,03,32,4.40
2008,10,26,03,33,4.40
2008,10,26,03,34,4.50
2008,10,26,03,35,4.60
2008,10,26,03,36,4.60
2008,10,26,03,37,4.60
2008,10,26,03,38,4.60
2008,10,26,03,39,4.60
2008,10,26,03,40,4.60
2008,10,26,03,41,4.60
2008,10,26,03,42,4.60
2008,10,26,03,43,4.70
2008,10,26,03,44,4.70
2008,10,26,03,45,4.70
2008,10,26,03,46,4.70
2008,10,26,03,47,4.70
2008,10,26,03,48,4.70
2008,10,26,03,49,4.70
2008,10,26,03,50,4.60
2008,10,26,03,51,4.60
2008,10,26,03,52,4.50
2008,10,26,03,53,4.50
2008,10,26,03,54,4.40
2008,10,26,03,55,4.40
2008,10,26,03,56,4.30
2008,10,26,03,57,4.30
2008,10,26,03,58,4.30
2008,10,26,03,59,4.20
2008,10,26,04,00,4.20
2008,10,26,04,01,4.10
2008,10,26,04,02,4.10
2008,10,26,04,03,4.10
2008,10,26,04,04,4.00
2008,10,26,04,05,3.90
2008,10,26,04,06,3.90
2008,10,26,04,07,3.90
2008,10,26,04,08,3.80
2008,10,26,04,09,3.80
2008,10,26,04,10,3.80
2008,10,26,04,11,3.70
2008,10,26,04,12,3.70
2008,10,26,04,13,3.70
2008,10,26,04,14,3.70
2008,10,26,04,15,3.70
2008,10,26,04,16,3.80
2008,10,26,04,17,3.80
2008,10,26,04,18,3.80
2008,10,26,04,19,3.80
2008,10,26,04,20,3.80
2008,10,26,04,21,3.80
2008,10,26,04,22,3.70
2008,10,26,04,23,3.70
2008,10,26,04,24,3.70
2008,10,26,04,25,3.60
2008,10,26,04,26,3.60
2008,10,26,04,27,3.60
2008,10,26,04,28,3.50
2008,10,26,04,29,3.50
2008,10,26,04,30,3.50
2008,10,26,04,31,3.50
2008,10,26,04,32,3.40
2008,10,26,04,33,3.40
2008,10,26,04,34,3.40
2008,10,26,04,35,3.40
2008,10,26,04,36,3.30
2008,10,26,04,37,3.30
2008,10,26,04,38,3.30
2008,10,26,04,39,3.30
2008,10,26,04,40,3.30
2008,10,26,04,41,3.30
2008,10,26,04,42,3.30
2008,10,26,04,43,3.30
2008,10,26,04,44,3.30
2008,10,26,04,45,3.30
2008,10,26,04,46,3.30
2008,10,26,04,47,3.30
2008,10,26,04,48,3.30
2008,10,26,04,49,3.20
2008,10,26,04,50,3.20
2008,10,26,04,51,3.20
2008,10,26,04,52,3.20
2008,10,26,04,53,3.20
2008,10,26,04,54,3.10
2008,10,26,04,55,3.10
2008,10,26,04,56,3.10
2008,10,26,04,57,3.00
2008,10,26,04,58,2.90
2008,10,26,04,59,2.90
2008,10,26,05,00,2.90
2008,10,26,05,01,2.80
2008,10,26,05,02,2.80
2008,10,26,05,03,2.80
2008,10,26,05,04,2.80
2008,10,26,05,05,2.80
2008,10,26,05,06,2.80
2008,10,26,05,07,2.80
2008,10,26,05,08,2.80
2008,10,26,05,09,2.80
2008,10,26,05,10,2.80
2008,10,26,05,11,2.80
2008,10,26,05,12,2.80
2008,10,26,05,13,2.80
2008,10,26,05,14,2.80
2008,10,26,05,15,2.80
2008,10,26,05,16,2.70
2008,10,26,05,17,2.70
2008,10,26,05,18,2.70
2008,10,26,05,19,2.70
2008,10,26,05,20,2.70
2008,10,26,05,21,2.70
2008,10,26,05,22,2.60
2008,10,26,05,23,2.60
2008,10,26,05,24,2.50
2008,10,26,05,25,2.50
2008,10,26,05,26,2.50
2008,10,26,05,27,2.50
2008,10,26,05,28,2.50
2008,10,26,05,29,2.40
2008,10,26,05,30,2.40
2008,10,26,05,31,2.40
2008,10,26,05,32,2.40
2008,10,26,05,33,2.40
2008,10,26,05,34,2.40
2008,10,26,05,35,2.40
2008,10,26,05,36,2.30
2008,10,26,05,37,2.30
2008,10,26,05,38,2.30
2008,10,26,05,39,2.30
2008,10,26,05,40,2.30
2008,10,26,05,41,2.30
2008,10,26,05,42,2.30
2008,10,26,05,43,2.30
2008,10,26,05,44,2.20
2008,10,26,05,45,2.20
2008,10,26,05,46,2.20
2008,10,26,05,47,2.20
2008,10,26,05,48,2.20
2008,10,26,05,49,2.20
2008,10,26,05,50,2.10
2008,10,26,05,51,2.10
2008,10,26,05,52,2.10
2008,10,26,05,53,2.10
2008,10,26,05,54,2.10
2008,10,26,05,55,2.10
2008,10,26,05,56,2.10
2008,10,26,05,57,2.10
2008,10,26,05,58,2.00
2008,10,26,05,59,2.10
2008,10,26,06,00,2.10
2008,10,26,06,01,2.00
2008,10,26,06,02,2.00
2008,10,26,06,03,1.90
2008,10,26,06,04,1.90
2008,10,26,06,05,1.90
2008,10,26,06,06,1.90
2008,10,26,06,07,1.80
2008,10,26,06,08,1.80
2008,10,26,06,09,1.80
2008,10,26,06,10,1.80
2008,10,26,06,11,1.80
2008,10,26,06,12,1.80
2008,10,26,06,13,1.80
2008,10,26,06,14,1.80
2008,10,26,06,15,1.80
2008,10,26,06,16,1.80
2008,10,26,06,17,1.70
2008,10,26,06,18,1.70
2008,10,26,06,19,1.80
2008,10,26,06,20,1.80
2008,10,26,06,21,1.80
2008,10,26,06,22,1.80
2008,10,26,06,23,1.80
2008,10,26,06,24,1.80
2008,10,26,06,25,1.70
2008,10,26,06,26,1.70
2008,10,26,06,27,1.70
2008,10,26,06,28,1.70
2008,10,26,06,29,1.70
2008,10,26,06,30,1.70
2008,10,26,06,31,1.70
2008,10,26,06,32,1.70
2008,10,26,06,33,1.70
2008,10,26,06,34,1.70
2008,10,26,06,35,1.70
2008,10,26,06,36,1.70
2008,10,26,06,37,1.70
2008,10,26,06,38,1.70
2008,10,26,06,39,1.70
2008,10,26,06,40,1.70
2008,10,26,06,41,1.70
2008,10,26,06,42,1.70
2008,10,26,06,43,1.70
2008,10,26,06,44,1.70
2008,10,26,06,45,1.70
2008,10,26,06,46,1.70
2008,10,26,06,47,1.70
2008,10,26,06,48,1.80
2008,10,26,06,49,1.80
2008,10,26,06,50,1.80
2008,10,26,06,51,1.80
2008,10,26,06,52,1.80
2008,10,26,06,53,1.80
2008,10,26,06,54,1.80
2008,10,26,06,55,1.70
2008,10,26,06,56,1.70
2008,10,26,06,57,1.70
2008,10,26,06,58,1.70
2008,10,26,06,59,1.70
2008,10,26,07,00,1.70
2008,10,26,07,01,1.70
2008,10,26,07,02,1.70
2008,10,26,07,03,1.70
2008,10,26,07,04,1.60
2008,10,26,07,05,1.60
2008,10,26,07,06,1.60
2008,10,26,07,07,1.60
2008,10,26,07,08,1.50
2008,10,26,07,09,1.50
2008,10,26,07,10,1.50
2008,10,26,07,11,1.40
2008,10,26,07,12,1.40
2008,10,26,07,13,1.40
2008,10,26,07,14,1.30
2008,10,26,07,15,1.30
2008,10,26,07,16,1.40
2008,10,26,07,17,1.50
2008,10,26,07,18,1.50
2008,10,26,07,19,1.60
2008,10,26,07,20,1.60
2008,10,26,07,21,1.60
2008,10,26,07,22,1.60
2008,10,26,07,23,1.60
2008,10,26,07,24,1.60
2008,10,26,07,25,1.70
2008,10,26,07,26,1.70
2008,10,26,07,27,1.60
2008,10,26,07,28,1.60
2008,10,26,07,29,1.60
2008,10,26,07,30,1.60
2008,10,26,07,31,1.60
2008,10,26,07,32,1.60
2008,10,26,07,33,1.50
2008,10,26,07,34,1.40
2008,10,26,07,35,1.40
2008,10,26,07,36,1.40
2008,10,26,07,37,1.40
2008,10,26,07,38,1.40
2008,10,26,07,39,1.30
2008,10,26,07,40,1.30
2008,10,26,07,41,1.30
2008,10,26,07,42,1.30
2008,10,26,07,43,1.30
2008,10,26,07,44,1.30
2008,10,26,07,45,1.30
2008,10,26,07,46,1.30
2008,10,26,07,47,1.30
2008,10,26,07,48,1.30
2008,10,26,07,49,1.30
2008,10,26,07,50,1.30
2008,10,26,07,51,1.30
2008,10,26,07,52,1.50
2008,10,26,07,53,1.60
2008,10,26,07,54,1.80
2008,10,26,07,55,2.00
2008,10,26,07,56,2.20
2008,10,26,07,57,2.40
2008,10,26,07,58,2.70
2008,10,26,07,59,2.90
2008,10,26,08,00,3.10
2008,10,26,08,01,3.30
2008,10,26,08,02,3.50
2008,10,26,08,03,3.70
2008,10,26,08,04,3.90
2008,10,26,08,05,4.00
2008,10,26,08,06,4.10
2008,10,26,08,07,4.20
2008,10,26,08,08,4.20
2008,10,26,08,09,4.30
2008,10,26,08,10,4.30
2008,10,26,08,11,4.30
2008,10,26,08,12,4.30
2008,10,26,08,13,4.30
2008,10,26,08,14,4.30
2008,10,26,08,15,4.30
2008,10,26,08,16,4.20
2008,10,26,08,17,4.20
2008,10,26,08,18,4.20
2008,10,26,08,19,4.30
2008,10,26,08,20,4.40
2008,10,26,08,21,4.60
2008,10,26,08,22,4.70
2008,10,26,08,23,4.80
2008,10,26,08,24,4.90
2008,10,26,08,25,5.00
2008,10,26,08,26,5.10
2008,10,26,08,27,5.10
2008,10,26,08,28,5.10
2008,10,26,08,29,5.20
2008,10,26,08,30,5.30
2008,10,26,08,31,5.30
2008,10,26,08,32,5.30
2008,10,26,08,33,5.40
2008,10,26,08,34,5.40
2008,10,26,08,35,5.50
2008,10,26,08,36,5.50
2008,10,26,08,37,5.50
2008,10,26,08,38,5.60
2008,10,26,08,39,5.60
2008,10,26,08,40,5.60
2008,10,26,08,41,5.60
2008,10,26,08,42,5.70
2008,10,26,08,43,5.70
2008,10,26,08,44,5.70
2008,10,26,08,45,5.70
2008,10,26,08,46,5.70
2008,10,26,08,47,5.70
2008,10,26,08,48,5.80
2008,10,26,08,49,5.80
2008,10,26,08,50,5.90
2008,10,26,08,51,5.90
2008,10,26,08,52,6.00
2008,10,26,08,53,6.00
2008,10,26,08,54,6.10
2008,10,26,08,55,6.10
2008,10,26,08,56,6.20
2008,10,26,08,57,6.20
2008,10,26,08,58,6.30
2008,10,26,08,59,6.30
2008,10,26,09,00,6.50
2008,10,26,09,01,6.50
2008,10,26,09,02,6.60
2008,10,26,09,03,6.70
2008,10,26,09,04,6.70
2008,10,26,09,05,6.80
2008,10,26,09,06,6.80
2008,10,26,09,07,6.90
2008,10,26,09,08,6.90
2008,10,26,09,09,7.00
2008,10,26,09,10,7.10
2008,10,26,09,11,7.10
2008,10,26,09,12,7.20
2008,10,26,09,13,7.20
2008,10,26,09,14,7.20
2008,10,26,09,15,7.30
2008,10,26,09,16,7.30
2008,10,26,09,17,7.40
2008,10,26,09,18,7.40
2008,10,26,09,19,7.50
2008,10,26,09,20,7.50
2008,10,26,09,21,7.60
2008,10,26,09,22,7.60
2008,10,26,09,23,7.70
2008,10,26,09,24,7.70
2008,10,26,09,25,7.70
2008,10,26,09,26,7.80
2008,10,26,09,27,7.80
2008,10,26,09,28,7.90
2008,10,26,09,29,7.90
2008,10,26,09,30,8.00
2008,10,26,09,31,8.10
2008,10,26,09,32,8.10
2008,10,26,09,33,8.20
2008,10,26,09,34,8.20
2008,10,26,09,35,8.30
2008,10,26,09,36,8.30
2008,10,26,09,37,8.30
2008,10,26,09,38,8.40
2008,10,26,09,39,8.40
2008,10,26,09,40,8.40
2008,10,26,09,41,8.50
2008,10,26,09,42,8.50
2008,10,26,09,43,8.60
2008,10,26,09,44,8.60
2008,10,26,09,45,8.60
2008,10,26,09,46,8.70
2008,10,26,09,47,8.70
2008,10,26,09,48,8.80
2008,10,26,09,49,8.80
2008,10,26,09,50,8.80
2008,10,26,09,51,8.80
2008,10,26,09,52,8.90
2008,10,26,09,53,8.90
2008,10,26,09,54,8.90
2008,10,26,09,55,8.90
2008,10,26,09,56,8.90
2008,10,26,09,57,8.90
2008,10,26,09,58,8.90
2008,10,26,09,59,9.00
2008,10,26,10,00,9.00
2008,10,26,10,01,9.00
2008,10,26,10,02,9.10
2008,10,26,10,03,9.10
2008,10,26,10,04,9.10
2008,10,26,10,05,9.10
2008,10,26,10,06,9.10
2008,10,26,10,07,9.10
2008,10,26,10,08,9.10
2008,10,26,10,09,9.20
2008,10,26,10,10,9.20
2008,10,26,10,11,9.20
2008,10,26,10,12,9.20
2008,10,26,10,13,9.20
2008,10,26,10,14,9.20
2008,10,26,10,15,9.30
2008,10,26,10,16,9.30
2008,10,26,10,17,9.40
2008,10,26,10,18,9.40
2008,10,26,10,19,9.40
2008,10,26,10,20,9.50
2008,10,26,10,21,9.50
2008,10,26,10,22,9.50
2008,10,26,10,23,9.60
2008,10,26,10,24,9.60
2008,10,26,10,25,9.60
2008,10,26,10,26,9.60
2008,10,26,10,27,9.70
2008,10,26,10,28,9.70
2008,10,26,10,29,9.80
2008,10,26,10,30,9.80
2008,10,26,10,31,9.80
2008,10,26,10,32,9.80
2008,10,26,10,33,9.80
2008,10,26,10,34,9.80
2008,10,26,10,35,9.80
2008,10,26,10,36,9.90
2008,10,26,10,37,9.90
2008,10,26,10,38,9.90
2008,10,26,10,39,9.90
2008,10,26,10,40,9.90
2008,10,26,10,41,10.00
2008,10,26,10,42,10.00
2008,10,26,10,43,10.00
2008,10,26,10,44,10.10
2008,10,26,10,45,10.10
2008,10,26,10,46,10.10
2008,10,26,10,47,10.10
2008,10,26,10,48,10.20
2008,10,26,10,49,10.20
2008,10,26,10,50,10.20
2008,10,26,10,51,10.20
2008,10,26,10,52,10.20
2008,10,26,10,53,10.30
2008,10,26,10,54,10.30
2008,10,26,10,55,10.30
2008,10,26,10,56,10.40
2008,10,26,10,57,10.40
2008,10,26,10,58,10.40
2008,10,26,10,59,10.40
2008,10,26,11,00,10.40
2008,10,26,11,01,10.40
2008,10,26,11,02,10.50
2008,10,26,11,03,10.50
2008,10,26,11,04,10.50
2008,10,26,11,05,10.60
2008,10,26,11,06,10.60
2008,10,26,11,07,10.60
2008,10,26,11,08,10.60
2008,10,26,11,09,10.70
2008,10,26,11,10,10.80
2008,10,26,11,11,10.80
2008,10,26,11,12,10.80
2008,10,26,11,13,10.80
2008,10,26,11,14,10.80
2008,10,26,11,15,10.80
2008,10,26,11,16,10.80
2008,10,26,11,17,10.70
2008,10,26,11,18,10.70
2008,10,26,11,19,10.70
2008,10,26,11,20,10.70
2008,10,26,11,21,10.70
2008,10,26,11,22,10.70
2008,10,26,11,23,10.70
2008,10,26,11,24,10.70
2008,10,26,11,25,10.70
2008,10,26,11,26,10.70
2008,10,26,11,27,10.70
2008,10,26,11,28,10.70
2008,10,26,11,29,10.70
2008,10,26,11,30,10.70
2008,10,26,11,31,10.80
2008,10,26,11,32,10.80
2008,10,26,11,33,10.80
2008,10,26,11,34,10.90
2008,10,26,11,35,10.90
2008,10,26,11,36,11.00
2008,10,26,11,37,11.00
2008,10,26,11,38,11.00
2008,10,26,11,39,11.10
2008,10,26,11,40,11.10
2008,10,26,11,41,11.10
2008,10,26,11,42,11.10
2008,10,26,11,43,11.20
2008,10,26,11,44,11.10
2008,10,26,11,45,11.10
2008,10,26,11,46,11.10
2008,10,26,11,47,11.20
2008,10,26,11,48,11.20
2008,10,26,11,49,11.20
2008,10,26,11,50,11.20
2008,10,26,11,51,11.20
2008,10,26,11,52,11.20
2008,10,26,11,53,11.20
2008,10,26,11,54,11.20
2008,10,26,11,55,11.20
2008,10,26,11,56,11.20
2008,10,26,11,57,11.20
2008,10,26,11,58,11.20
2008,10,26,11,59,11.20
2008,10,26,12,00,11.30
2008,10,26,12,01,11.30
2008,10,26,12,02,11.20
2008,10,26,12,03,11.20
2008,10,26,12,04,11.30
2008,10,26,12,05,11.30
2008,10,26,12,06,11.30
2008,10,26,12,07,11.30
2008,10,26,12,08,11.30
2008,10,26,12,09,11.30
2008,10,26,12,10,11.30
2008,10,26,12,11,11.30
2008,10,26,12,12,11.40
2008,10,26,12,13,11.40
2008,10,26,12,14,11.50
2008,10,26,12,15,11.50
2008,10,26,12,16,11.50
2008,10,26,12,17,11.60
2008,10,26,12,18,11.60
2008,10,26,12,19,11.60
2008,10,26,12,20,11.70
2008,10,26,12,21,11.70
2008,10,26,12,22,11.70
2008,10,26,12,23,11.80
2008,10,26,12,24,11.80
2008,10,26,12,25,11.90
2008,10,26,12,26,11.90
2008,10,26,12,27,11.90
2008,10,26,12,28,11.90
2008,10,26,12,29,11.90
2008,10,26,12,30,11.90
2008,10,26,12,31,11.90
2008,10,26,12,32,11.90
2008,10,26,12,33,11.90
2008,10,26,12,34,11.90
2008,10,26,12,35,12.00
2008,10,26,12,36,12.00
2008,10,26,12,37,12.00
2008,10,26,12,38,12.00
2008,10,26,12,39,12.00
2008,10,26,12,40,12.00
2008,10,26,12,41,12.00
2008,10,26,12,42,12.00
2008,10,26,12,43,12.10
2008,10,26,12,44,12.10
2008,10,26,12,45,12.10
2008,10,26,12,46,12.10
2008,10,26,12,47,12.10
2008,10,26,12,48,12.10
2008,10,26,12,49,12.10
2008,10,26,12,50,12.10
2008,10,26,12,51,12.20
2008,10,26,12,52,12.20
2008,10,26,12,53,12.20
2008,10,26,12,54,12.30
2008,10,26,12,55,12.30
2008,10,26,12,56,12.30
2008,10,26,12,57,12.30
2008,10,26,12,58,12.30
2008,10,26,12,59,12.30
2008,10,26,13,00,12.30
2008,10,26,13,01,12.20
2008,10,26,13,02,12.20
2008,10,26,13,03,12.20
2008,10,26,13,04,12.30
2008,10,26,13,05,12.30
2008,10,26,13,06,12.30
2008,10,26,13,07,12.30
2008,10,26,13,08,12.30
2008,10,26,13,09,12.30
2008,10,26,13,10,12.30
2008,10,26,13,11,12.30
2008,10,26,13,12,12.30
2008,10,26,13,13,12.30
2008,10,26,13,14,12.30
2008,10,26,13,15,12.30
2008,10,26,13,16,12.20
2008,10,26,13,17,12.20
2008,10,26,13,18,12.20
2008,10,26,13,19,12.20
2008,10,26,13,20,12.20
2008,10,26,13,21,12.20
2008,10,26,13,22,12.20
2008,10,26,13,23,12.20
2008,10,26,13,24,12.20
2008,10,26,13,25,12.30
2008,10,26,13,26,12.20
2008,10,26,13,27,12.20
2008,10,26,13,28,12.30
2008,10,26,13,29,12.30
2008,10,26,13,30,12.30
2008,10,26,13,31,12.30
2008,10,26,13,32,12.30
2008,10,26,13,33,12.40
2008,10,26,13,34,12.40
2008,10,26,13,35,12.40
2008,10,26,13,36,12.40
2008,10,26,13,37,12.40
2008,10,26,13,38,12.30
2008,10,26,13,39,12.30
2008,10,26,13,40,12.30
2008,10,26,13,41,12.30
2008,10,26,13,42,12.30
2008,10,26,13,43,12.30
2008,10,26,13,44,12.30
2008,10,26,13,45,12.30
2008,10,26,13,46,12.30
2008,10,26,13,47,12.30
2008,10,26,13,48,12.40
2008,10,26,13,49,12.40
2008,10,26,13,50,12.40
2008,10,26,13,51,12.40
2008,10,26,13,52,12.40
2008,10,26,13,53,12.40
2008,10,26,13,54,12.40
2008,10,26,13,55,12.40
2008,10,26,13,56,12.50
2008,10,26,13,57,12.50
2008,10,26,13,58,12.40
2008,10,26,13,59,12.40
2008,10,26,14,00,12.40
2008,10,26,14,01,12.40
2008,10,26,14,02,12.40
2008,10,26,14,03,12.40
2008,10,26,14,04,12.40
2008,10,26,14,05,12.40
2008,10,26,14,06,12.40
2008,10,26,14,07,12.50
2008,10,26,14,08,12.40
2008,10,26,14,09,12.40
2008,10,26,14,10,12.50
2008,10,26,14,11,12.50
2008,10,26,14,12,12.60
2008,10,26,14,13,12.60
2008,10,26,14,14,12.70
2008,10,26,14,15,12.70
2008,10,26,14,16,12.70
2008,10,26,14,17,12.70
2008,10,26,14,18,12.70
2008,10,26,14,19,12.60
2008,10,26,14,20,12.60
2008,10,26,14,21,12.60
2008,10,26,14,22,12.50
2008,10,26,14,23,12.50
2008,10,26,14,24,12.40
2008,10,26,14,25,12.40
2008,10,26,14,26,12.40
2008,10,26,14,27,12.30
2008,10,26,14,28,12.30
2008,10,26,14,29,12.30
2008,10,26,14,30,12.30
2008,10,26,14,31,12.40
2008,10,26,14,32,12.40
2008,10,26,14,33,12.40
2008,10,26,14,34,12.40
2008,10,26,14,35,12.50
2008,10,26,14,36,12.50
2008,10,26,14,37,12.60
2008,10,26,14,38,12.60
2008,10,26,14,39,12.60
2008,10,26,14,40,12.70
2008,10,26,14,41,12.70
2008,10,26,14,42,12.70
2008,10,26,14,43,12.70
2008,10,26,14,44,12.70
2008,10,26,14,45,12.70
2008,10,26,14,46,12.70
2008,10,26,14,47,12.70
2008,10,26,14,48,12.70
2008,10,26,14,49,12.70
2008,10,26,14,50,12.70
2008,10,26,14,51,12.80
2008,10,26,14,52,12.80
2008,10,26,14,53,12.80
2008,10,26,14,54,12.80
2008,10,26,14,55,12.80
2008,10,26,14,56,12.80
2008,10,26,14,57,12.90
2008,10,26,14,58,12.90
2008,10,26,14,59,12.90
2008,10,26,15,00,12.90
2008,10,26,15,01,12.80
2008,10,26,15,02,12.80
2008,10,26,15,03,12.70
2008,10,26,15,04,12.70
2008,10,26,15,05,12.60
2008,10,26,15,06,12.60
2008,10,26,15,07,12.60
2008,10,26,15,08,12.60
2008,10,26,15,09,12.60
2008,10,26,15,10,12.60
2008,10,26,15,11,12.70
2008,10,26,15,12,12.70
2008,10,26,15,13,12.70
2008,10,26,15,14,12.70
2008,10,26,15,15,12.60
2008,10,26,15,16,12.60
2008,10,26,15,17,12.60
2008,10,26,15,18,12.60
2008,10,26,15,19,12.60
2008,10,26,15,20,12.60
2008,10,26,15,21,12.60
2008,10,26,15,22,12.70
2008,10,26,15,23,12.70
2008,10,26,15,24,12.70
2008,10,26,15,25,12.70
2008,10,26,15,26,12.70
2008,10,26,15,27,12.70
2008,10,26,15,28,12.70
2008,10,26,15,29,12.70
2008,10,26,15,30,12.70
2008,10,26,15,31,12.70
2008,10,26,15,32,12.70
2008,10,26,15,33,12.70
2008,10,26,15,34,12.70
2008,10,26,15,35,12.70
2008,10,26,15,36,12.70
2008,10,26,15,37,12.80
2008,10,26,15,38,12.80
2008,10,26,15,39,12.80
2008,10,26,15,40,12.80
2008,10,26,15,41,12.80
2008,10,26,15,42,12.80
2008,10,26,15,43,12.80
2008,10,26,15,44,12.80
2008,10,26,15,45,12.80
2008,10,26,15,46,12.70
2008,10,26,15,47,12.70
2008,10,26,15,48,12.70
2008,10,26,15,49,12.70
2008,10,26,15,50,12.70
2008,10,26,15,51,12.70
2008,10,26,15,52,12.70
2008,10,26,15,53,12.70
2008,10,26,15,54,12.80
2008,10,26,15,55,12.70
2008,10,26,15,56,12.70
2008,10,26,15,57,12.70
2008,10,26,15,58,12.70
2008,10,26,15,59,12.70
2008,10,26,16,00,12.70
2008,10,26,16,01,12.70
2008,10,26,16,02,12.60
2008,10,26,16,03,12.60
2008,10,26,16,04,12.60
2008,10,26,16,05,12.60
2008,10,26,16,06,12.60
2008,10,26,16,07,12.60
2008,10,26,16,08,12.60
2008,10,26,16,09,12.60
2008,10,26,16,10,12.60
2008,10,26,16,11,12.60
2008,10,26,16,12,12.60
2008,10,26,16,13,12.60
2008,10,26,16,14,12.60
2008,10,26,16,15,12.60
2008,10,26,16,16,12.50
2008,10,26,16,17,12.50
2008,10,26,16,18,12.50
2008,10,26,16,19,12.50
2008,10,26,16,20,12.40
2008,10,26,16,21,12.40
2008,10,26,16,22,12.40
2008,10,26,16,23,12.40
2008,10,26,16,24,12.40
2008,10,26,16,25,12.40
2008,10,26,16,26,12.40
2008,10,26,16,27,12.40
2008,10,26,16,28,12.40
2008,10,26,16,29,12.40
2008,10,26,16,30,12.40
2008,10,26,16,31,12.40
2008,10,26,16,32,12.40
2008,10,26,16,33,12.40
2008,10,26,16,34,12.40
2008,10,26,16,35,12.40
2008,10,26,16,36,12.40
2008,10,26,16,37,12.40
2008,10,26,16,38,12.40
2008,10,26,16,39,12.40
2008,10,26,16,40,12.30
2008,10,26,16,41,12.30
2008,10,26,16,42,12.30
2008,10,26,16,43,12.30
2008,10,26,16,44,12.30
2008,10,26,16,45,12.30
2008,10,26,16,46,12.30
2008,10,26,16,47,12.30
2008,10,26,16,48,12.30
2008,10,26,16,49,12.20
2008,10,26,16,50,12.20
2008,10,26,16,51,12.20
2008,10,26,16,52,12.20
2008,10,26,16,53,12.20
2008,10,26,16,54,12.20
2008,10,26,16,55,12.20
2008,10,26,16,56,12.20
2008,10,26,16,57,12.20
2008,10,26,16,58,12.20
2008,10,26,16,59,12.20
2008,10,26,17,00,12.10
2008,10,26,17,01,12.10
2008,10,26,17,02,12.10
2008,10,26,17,03,12.10
2008,10,26,17,04,12.10
2008,10,26,17,05,12.10
2008,10,26,17,06,12.10
2008,10,26,17,07,12.10
2008,10,26,17,08,12.10
2008,10,26,17,09,12.10
2008,10,26,17,10,12.10
2008,10,26,17,11,12.00
2008,10,26,17,12,12.00
2008,10,26,17,13,11.90
2008,10,26,17,14,11.90
2008,10,26,17,15,11.90
2008,10,26,17,16,11.90
2008,10,26,17,17,11.90
2008,10,26,17,18,11.90
2008,10,26,17,19,11.90
2008,10,26,17,20,11.90
2008,10,26,17,21,11.90
2008,10,26,17,22,11.80
2008,10,26,17,23,11.80
2008,10,26,17,24,11.80
2008,10,26,17,25,11.80
2008,10,26,17,26,11.80
2008,10,26,17,27,11.80
2008,10,26,17,28,11.70
2008,10,26,17,29,11.70
2008,10,26,17,30,11.70
2008,10,26,17,31,11.70
2008,10,26,17,32,11.70
2008,10,26,17,33,11.70
2008,10,26,17,34,11.70
2008,10,26,17,35,11.60
2008,10,26,17,36,11.60
2008,10,26,17,37,11.60
2008,10,26,17,38,11.60
2008,10,26,17,39,11.50
2008,10,26,17,40,11.50
2008,10,26,17,41,11.50
2008,10,26,17,42,11.50
2008,10,26,17,43,11.50
2008,10,26,17,44,11.40
2008,10,26,17,45,11.40
2008,10,26,17,46,11.40
2008,10,26,17,47,11.30
2008,10,26,17,48,11.30
2008,10,26,17,49,11.30
2008,10,26,17,50,11.20
2008,10,26,17,51,11.20
2008,10,26,17,52,11.20
2008,10,26,17,53,11.10
2008,10,26,17,54,11.10
2008,10,26,17,55,11.00
2008,10,26,17,56,10.90
2008,10,26,17,57,10.90
2008,10,26,17,58,10.80
2008,10,26,17,59,10.80
2008,10,26,18,00,10.70
2008,10,26,18,01,10.70
2008,10,26,18,02,10.70
2008,10,26,18,03,10.60
2008,10,26,18,04,10.60
2008,10,26,18,05,10.60
2008,10,26,18,06,10.50
2008,10,26,18,07,10.50
2008,10,26,18,08,10.50
2008,10,26,18,09,10.40
2008,10,26,18,10,10.40
2008,10,26,18,11,10.40
2008,10,26,18,12,10.30
2008,10,26,18,13,10.30
2008,10,26,18,14,10.30
2008,10,26,18,15,10.30
2008,10,26,18,16,10.20
2008,10,26,18,17,10.20
2008,10,26,18,18,10.20
2008,10,26,18,19,10.10
2008,10,26,18,20,10.10
2008,10,26,18,21,10.10
2008,10,26,18,22,10.10
2008,10,26,18,23,10.00
2008,10,26,18,24,10.00
2008,10,26,18,25,9.90
2008,10,26,18,26,9.90
2008,10,26,18,27,9.90
2008,10,26,18,28,9.80
2008,10,26,18,29,9.80
2008,10,26,18,30,9.80
2008,10,26,18,31,9.80
2008,10,26,18,32,9.70
2008,10,26,18,33,9.70
2008,10,26,18,34,9.70
2008,10,26,18,35,9.70
2008,10,26,18,36,9.60
2008,10,26,18,37,9.60
2008,10,26,18,38,9.60
2008,10,26,18,39,9.50
2008,10,26,18,40,9.50
2008,10,26,18,41,9.50
2008,10,26,18,42,9.50
2008,10,26,18,43,9.40
2008,10,26,18,44,9.40
2008,10,26,18,45,9.40
2008,10,26,18,46,9.40
2008,10,26,18,47,9.30